Regional Weather Roundup
Issued by NWS

Home | Current Version | Previous Version | Text Only | Print | Product List | Glossary On
Versions: 1 2 3 4 5 6 7 8 9 10 11 12 13 14 15 16 17 18 19 20 21 22 23 24 25 26 27 28 29 30 31 32 33 34 35 36 37 38 39 40 41 42 43 44 45 46 47 48 49 50
000
ASUS43 KDTX 290901
RWRMI
MICHIGAN HOURLY REGIONAL WEATHER ROUNDUP
NATIONAL WEATHER SERVICE DETROIT/PONTIAC MI
400 AM EST SAT NOV 29 2014

NOTE: "FAIR" INDICATES FEW OR NO CLOUDS BELOW 12,000 FEET WITH NO
SIGNIFICANT WEATHER AND/OR OBSTRUCTION TO VISIBILITY.

MIZ047>049-052>055-059>063-066>070-074>076-081>083-291000-
SOUTHEAST LOWER MICHIGAN

CITY           SKY/WX    TMP DP  RH WIND       PRES   REMARKS
ADRIAN         MIX PCPN  30  24  78 S7        29.99F WCI  23
ALMA           MOCLDY    28  25  89 SE6       29.93F WCI  21
ANN ARBOR      CLOUDY    30  22  72 SE7       29.99F WCI  23
BAD AXE        CLOUDY    28  26  89 S13       29.99F WCI  18
DETROIT CITY   CLOUDY    33  23  66 S7        30.04F WCI  27
DETROIT        CLOUDY    31  23  72 SE8       30.03F WCI  23
FLINT          CLOUDY    32  24  72 S10       29.98F WCI  24
GROSSE ILE     CLOUDY    34  25  69 S13       30.02F WCI  25
HILLSDALE      CLOUDY    30  24  78 S8        29.94F WCI  22
HOWELL         CLOUDY    28  25  87 SE10      29.97F WCI  19

CITY           SKY/WX    TMP DP  RH WIND       PRES   REMARKS
JACKSON        CLOUDY    29  23  78 SE8       29.95F WCI  21
LAMBERTVILLE   CLOUDY    32  23  69 S7        30.01F WCI  26
LANSING        CLOUDY    29  23  78 SE10      29.94F WCI  20
LAPEER         CLOUDY    29  24  82 S8        30.00S WCI  21
MASON          FLURRIES  29  25  85 SE9       29.95F WCI  21
MONROE         CLOUDY    32  25  74 S6        30.01F WCI  26
MT. CLEMENS    CLOUDY    32  27  80 S10       30.01F WCI  24
PONTIAC        CLOUDY    29  22  75 S8        29.98F WCI  21
PORT HOPE        N/A     29  23  78 S6        29.98F WCI  23
PORT HURON     CLOUDY    30  27  86 SE7       30.03F WCI  23
TRI CITIES     CLOUDY    30  24  78 S12       29.96F WCI  20
TROY           CLOUDY    33  25  71 S7        30.03F WCI  27
SAGINAW HB     CLOUDY    30  27  86 S10       29.96F WCI  21
$$
MIZ043>046-050>051-056>058-064>065-071>073-077>080-291000-
SOUTHWEST LOWER MICHIGAN

CITY           SKY/WX    TMP DP  RH WIND       PRES   REMARKS
BATTLE CREEK   CLOUDY    32  22  66 S10       29.91F WCI  24
BENTON HARBOR  PTCLDY    30  24  78 SE9       29.87F WCI  22
BIG RAPIDS     CLOUDY    27  26  94 SE7       29.88F WCI  20
COLDWATER      CLOUDY    32  24  71 MISG      29.93F
FREMONT        MIX PCPN  30  27  90 SE9       29.85F WCI  21
HOLLAND        CLOUDY    33  25  72 SE7       29.88F WCI  27
GRAND RAPIDS   MIX PCPN  30  25  81 SE9       29.89F WCI  22
IONIA          MIX PCPN  30  27  88 S13       29.91F WCI  20
KALAMAZOO      CLOUDY    32  23  69 S8        29.90F WCI  25
LUDINGTON      CLOUDY    29  26  88 SE8       29.84F WCI  21
MARSHALL       CLOUDY    30  23  74 SE5       29.92F WCI  25
MOUNT PLEASANT CLOUDY    28  24  84 SE6       29.92F WCI  22
MUSKEGON       CLOUDY    31  23  72 SE12      29.86F WCI  22
SOUTH HAVEN    MOCLDY    32  25  76 S6        29.88F WCI  26
$$
MIZ016>042-291000-
NORTHERN LOWER MICHIGAN

CITY           SKY/WX    TMP DP  RH WIND       PRES   REMARKS
ALPENA         CLOUDY    26  23  88 S9        29.95F WCI  17
BEAVER ISLAND  MIX PCPN  31  30  96 SE7       29.85F WCI  24
BELLAIRE       CLOUDY    28  23  82 S7        29.90F WCI  21
CADILLAC       CLOUDY    24  22  91 SE7       29.84F WCI  16
CHARLEVOIX     CLOUDY    26  24  93 SE12G17   29.89F WCI  15
FRANKFORT      CLOUDY    28  25  88 SE9G17    29.85S WCI  19
GAYLORD        CLOUDY    22  19  89 S9        29.87F WCI  12
GRAYLING       CLOUDY    24  22  91 SE6       29.90F WCI  17
HARBOR SPRINGS CLOUDY    27  22  82 E5        29.89F WCI  21
HOUGHTON LAKE  CLOUDY    24  21  88 SE7       29.90F WCI  16
MANISTEE       CLOUDY    27  23  86 SE9       29.85F WCI  17
OSCODA         CLOUDY    29  25  85 S7        29.96F WCI  22
PELLSTON       CLOUDY    25  21  85 SE8       29.90F WCI  16
ROGERS CITY    CLOUDY    25  23  93 S10G16    29.94F WCI  15
TRAVERSE CITY  CLOUDY    27  21  78 VRB5      29.86F WCI  22
$$
MIZ007>008-015-291000-
EASTERN UPPER MICHIGAN

CITY           SKY/WX    TMP DP  RH WIND       PRES   REMARKS
KINROSS        CLOUDY    25  25 100 SE10      29.89F WCI  15
MACKINAC ISLAN CLOUDY    27  23  84 S13       29.88F WCI  16
NEWBERRY       CLOUDY    24  24  99 SE8       29.84F FOG     WCI  15
S. S. MARIE    CLOUDY    26  22  84 E7        29.92R WCI  18
MUNISING         N/A     30  26  85 S3        29.78F
$$
MIZ004>006-011>014-085-291000-
CENTRAL UPPER MICHIGAN

CITY           SKY/WX    TMP DP  RH WIND       PRES   REMARKS
MANISTIQUE     CLOUDY    32  31  98 S9G18     29.81F FOG     WCI  24
ESCANABA       CLOUDY    25  21  86 CALM      29.79F
MENOMINEE      CLOUDY    21  19  93 CALM      29.78F
SAWYER-GWINN   CLOUDY    22  20  92 S9        29.73F WCI  11
$$
MIZ001>003-009>011-084-291000-
WESTERN UPPER MICHIGAN

CITY           SKY/WX    TMP DP  RH WIND       PRES   REMARKS
IRON MOUNTAIN  CLOUDY    18  15  88 SE7       29.73F WCI   9
HOUGHTON       CLOUDY    20  14  77 S6        29.69F WCI  12
COPPER HARBOR    N/A     26  18  71 SW9G21    29.71F WCI  17
IRONWOOD       CLEAR     19  19 100 S6        29.63F WCI  11
$$

ABBREVIATIONS USED IN REMARKS
   TC - TEMPERATURE IN CELSIUS
  WCI - WIND CHILL INDEX
   HX - HEAT INDEX
  VSB - VISIBILITY




USA.gov is the U.S. government's official web portal to all federal, state and local government web resources and services.